Volver al catálogo

SL-12 R/B(2)

ActivoGEO
NORAD 11684·ROCKET BODY·🇷🇺 Russia

Lanzado Dec 28, 1979 desde Baikonur Cosmodrome

Loading…

TLE

ActualizadoSource: Space-Track

Época: Sep 14, 2026, 14:20 UTC

1 11684U 79105E   26257.59746110 -.00000135  00000-0  00000-0 0  9997
2 11684   6.6437 291.3722 0018429 310.7316  79.4651  0.98685417121913

Sigue SL-12 R/B(2) en tiempo real con AllMySat

Download on the App Store